York, PA

9:11 AM EST on December 08, 2019 (GMT -0500)
York

Weather History for KTHV - October, 2019

Change the Weather History Date:

Monday, October 28, 2019

  Actual Average Record
Temperature  
Mean Temperature 54 °F -  
Max Temperature 69 °F 0 °F 82 °F (2014)
Min Temperature 39 °F - 24 °F (2001)
Degree Days  
Heating Degree Days 11    
Growing Degree Days 4 (Base 50)    
Moisture  
Dew Point 45 °F    
Average Humidity 72    
Maximum Humidity 93    
Minimum Humidity 45    
Precipitation  
Precipitation 0.00 in - - ()
Sea Level Pressure  
Sea Level Pressure 30.15 in    
Wind  
Wind Speed 3 mph ()    
Max Wind Speed 10 mph    
Max Gust Speed -    
Visibility 10.0 miles    
Events      
Averages and records for this station are not official NWS values.
T = Trace of Precipitation, MM = Missing Value Source: Averaged Metar Reports

Daily Weather History Graph

Daily Weather History Graph

Search for Another Location

Airport or City:

Astronomy

Oct. 28, 2019 Rise Set
Actual Time 7:31 AM EDT 6:10 PM EDT
Civil Twilight 7:03 AM EDT 6:38 PM EDT
Nautical Twilight 6:32 AM EDT 7:09 PM EDT
Astronomical Twilight 6:00 AM EDT 7:41 PM EDT
Moon 7:50 AM EDT (10/28) 6:54 PM EDT (10/28)
Length of Visible Light 11h 34m
Length of Day
10h 38m
New Moon, 0% of the Moon is Illuminated
Oct 28
New Moon
Nov 4
First Quarter
Nov 12
Full
Nov 19
Last Quarter
Nov 26
New

Hourly Weather History & Observations

Time (EDT) Temp. Windchill Dew Point Humidity Pressure Visibility Wind Dir Wind Speed Gust Speed Precip Events Conditions
12:53 AM 45.0 °F 41.8 °F 42.1 °F 90% 30.02 in 10.0 mi WNW 5.8 mph - N/A   Clear
1:53 AM 45.0 °F 41.8 °F 42.1 °F 90% 30.03 in 10.0 mi NW 5.8 mph - N/A   Clear
2:53 AM 44.1 °F - 39.9 °F 85% 30.04 in 10.0 mi Calm Calm - N/A   Clear
3:53 AM 44.1 °F - 41.0 °F 89% 30.06 in 10.0 mi Calm Calm - N/A   Clear
4:53 AM 42.1 °F 39.2 °F 39.0 °F 89% 30.09 in 10.0 mi West 4.6 mph - N/A   Clear
5:53 AM 39.9 °F 37.8 °F 37.9 °F 93% 30.11 in 10.0 mi WNW 3.5 mph - N/A   Clear
6:53 AM 39.9 °F - 37.0 °F 89% 30.12 in 10.0 mi Calm Calm - N/A   Clear
7:53 AM 39.9 °F 37.8 °F 37.9 °F 93% 30.15 in 10.0 mi WNW 3.5 mph - N/A   Clear
8:53 AM 53.1 °F - 46.0 °F 77% 30.17 in 10.0 mi Calm Calm - N/A   Clear
9:53 AM 57.9 °F - 46.0 °F 65% 30.18 in 10.0 mi NNE 4.6 mph - N/A   Clear
10:53 AM 61.0 °F - 46.0 °F 58% 30.19 in 10.0 mi ENE 5.8 mph - N/A   Clear
11:53 AM 62.1 °F - 46.0 °F 56% 30.20 in 10.0 mi ENE 4.6 mph - N/A   Clear
12:53 PM 64.0 °F - 46.9 °F 54% 30.19 in 10.0 mi SE 3.5 mph - N/A   Clear
1:53 PM 66.0 °F - 46.9 °F 50% 30.17 in 10.0 mi Variable 3.5 mph - N/A   Clear
2:53 PM 66.9 °F - 46.9 °F 49% 30.17 in 10.0 mi Calm Calm - N/A   Clear
3:53 PM 69.1 °F - 46.9 °F 45% 30.15 in 10.0 mi Calm Calm - N/A   Clear
4:53 PM 68.0 °F - 48.0 °F 49% 30.15 in 10.0 mi Calm Calm - N/A   Clear
5:53 PM 64.0 °F - 48.0 °F 56% 30.16 in 10.0 mi SSE 5.8 mph - N/A   Clear
6:53 PM 60.1 °F - 48.0 °F 64% 30.19 in 10.0 mi SE 5.8 mph - N/A   Clear
7:53 PM 59.0 °F - 46.9 °F 64% 30.20 in 10.0 mi SSE 6.9 mph - N/A   Clear
8:53 PM 54.0 °F - 46.9 °F 77% 30.21 in 10.0 mi SSE 8.1 mph - N/A   Clear
9:53 PM 54.0 °F - 46.9 °F 77% 30.23 in 10.0 mi SE 8.1 mph - N/A   Clear
10:53 PM 54.0 °F - 48.0 °F 80% 30.24 in 10.0 mi SSE 5.8 mph - N/A   Clear
11:53 PM 54.0 °F - 48.9 °F 83% 30.24 in 10.0 mi SSE 10.4 mph - N/A   Clear